User: anonymous   Login
Location: Goheenville
(40.9070°N, 79.3720°W)
Time: 12:27:31
(UTC-04:00)
Language:

Meteor 2-10 Rocket - Orbit

View from above orbital plane
View from above orbital plane
View from above satellite
View from above satellite

Ground track
Ground track

The orbit data is extracted from the following two-line orbital elements,

1 14453U 83109B   16209.56621284  .00000027  00000-0  62266-5 0  9996
2 14453  81.1658  72.8701 0103961 282.9934  75.9653 14.24651949701301
Epoch (UTC): 27 July 2016 13:35:20
Eccentricity: 0.0103961
inclination: 81.1658°
perigee height: 735 km
apogee height: 884 km
right ascension of ascending node: 72.8701°
argument of perigee: 282.9934°
revolutions per day: 14.24651949
mean anomaly at epoch: 75.9653°
orbit number at epoch: 70130

The dashed part of the orbit path shows where the satellite is in the earth's shadow,  

DLR